This demonstration page uses our WeatherBlox Daily Observations layout. Learn more.

Left ArrowRight Arrow

44.8408, -93.29828

Hourly Observations for July 15, 2022

Temp ( °F °C ) Dew Point ( °F °C ) Humidity (%) Winds ( mph kmh ) Pressure ( in mb ) Visibility ( mi km ) Precip ( " mm )
12:53 am 00:53 Cloudy 76 24.4 66 18.9 72 72 SE 9 15 29.98 1015 10 16 0.00 0.00
1:53 am 01:53 Mostly Cloudy 74 23.3 66 18.9 76 76 SE 7 11 29.97 1015 10 16 0.00 0.00
2:43 am 02:43 Mostly Cloudy 73 22.8 66 18.9 79 79 SE 10 17 29.91 1013 10 16 0.00 0.00
2:53 am 02:53 Mostly Cloudy 73 22.8 66 18.9 79 79 SE 10 17 29.91 1013 10 16 0.00 0.00
3:53 am 03:53 Mostly Cloudy 73 22.8 67 19.4 81 81 ESE 5 7 29.92 1013 10 16 0.00 0.00
4:34 am 04:34 Cloudy 74 23.3 67 19.4 79 79 N 16 26 29.97 1015 10 16 0.00 0.00
4:53 am 04:53 Cloudy with Light Rain 73 22.8 67 19.4 81 81 NNE 24 39 29.98 1015 9 14 0.00 0.00
5:42 am 05:42 Cloudy 70 21.1 64 17.8 82 82 ESE 12 19 29.94 1014 10 16 0.07 1.78
5:53 am 05:53 Cloudy 70 21.1 64 17.8 82 82 E 8 13 29.98 1015 10 16 0.07 1.78
6:53 am 06:53 Cloudy 70 21.1 64 17.8 82 82 SE 13 20 29.97 1015 10 16 0.00 0.00
7:53 am 07:53 Mostly Cloudy 71 21.7 63 17.2 76 76 SE 9 15 29.98 1015 10 16 0.00 0.00
8:53 am 08:53 Mostly Cloudy 73 22.8 64 17.8 74 74 ESE 8 13 29.99 1016 10 16 0.00 0.00
9:53 am 09:53 Mostly Cloudy 74 23.3 65 18.3 74 74 SE 8 13 30.00 1016 10 16 0.00 0.00
10:53 am 10:53 Mostly Cloudy 77 25 66 18.9 69 69 E 6 9 30.00 1016 10 16 0.00 0.00
11:53 am 11:53 Partly Cloudy 81 27.2 68 20 65 65 ESE 9 15 30.00 1016 10 16 0.00 0.00
12:53 pm 12:53 Partly Cloudy 83 28.3 67 19.4 59 59 ESE 6 9 29.99 1016 10 16 0.00 0.00
1:53 pm 13:53 Partly Cloudy 84 28.9 68 20 59 59 ESE 8 13 29.98 1015 10 16 0.00 0.00
2:53 pm 14:53 Partly Cloudy 83 28.3 67 19.4 59 59 SE 6 9 29.97 1015 10 16 0.00 0.00
3:53 pm 15:53 Partly Cloudy 86 30 66 18.9 51 51 VRB 7 11 29.96 1015 10 16 0.00 0.00
4:53 pm 16:53 Partly Cloudy 86 30 66 18.9 51 51 undefined N/A 29.96 1015 10 16 0.00 0.00
5:53 pm 17:53 Partly Cloudy 88 31.1 66 18.9 48 48 E 7 11 29.96 1015 10 16 0.00 0.00
6:53 pm 18:53 Partly Cloudy 85 29.4 66 18.9 53 53 SSE 8 13 29.96 1015 10 16 0.00 0.00
7:53 pm 19:53 Partly Cloudy 84 28.9 66 18.9 55 55 SSE 5 7 29.97 1015 10 16 0.00 0.00
8:53 pm 20:53 Partly Cloudy 82 27.8 67 19.4 60 60 SE 6 9 29.98 1015 10 16 0.00 0.00
9:53 pm 21:53 Partly Cloudy 81 27.2 67 19.4 62 62 SE 5 7 30.00 1016 10 16 0.00 0.00
10:53 pm 22:53 Mostly Clear 78 25.6 68 20 71 71 SE 8 13 29.99 1016 10 16 0.00 0.00
11:53 pm 23:53 Mostly Clear 76 24.4 68 20 77 77 SSE 7 11 30.01 1016 10 16 0.00 0.00

Powered by AerisWeather